Location: ???????
(55.4362°N, 38.1183°E)
Time: 09:06:57
(UTC+00:00)

Cosmos 1943 Rocket - Visible Passes

Search period start: 28 October 2021 00:00
Search period end: 07 November 2021 00:00
Orbit: 810 x 845 km, 71.0° (Epoch: 27 October)

Date Brightness Start Highest point End Pass type
(mag) Time Alt. Az. Time Alt. Az. Time Alt. Az.
28 Oct 3.5 15:44:42 10° NNW 15:49:18 24° NNE 15:51:14 20° NE visible
28 Oct 2.8 17:28:27 10° NNW 17:32:45 49° N 17:32:45 49° N visible
28 Oct 4.6 19:12:37 10° NW 19:14:16 18° WNW 19:14:16 18° WNW visible
29 Oct 3.6 15:25:27 10° NNW 15:29:57 23° NNE 15:32:29 17° ENE visible
29 Oct 2.6 17:09:14 10° NNW 17:14:01 54° NNE 17:14:01 54° NNE visible
29 Oct 4.3 18:53:19 10° NW 18:55:32 22° WNW 18:55:32 22° WNW visible
30 Oct 3.6 15:06:12 10° NNW 15:10:36 22° NNE 15:13:47 14° ENE visible
30 Oct 2.4 16:50:00 10° NNW 16:55:18 54° NE 16:55:18 54° NE visible
30 Oct 4.1 18:34:02 10° NW 18:36:49 26° WNW 18:36:49 26° WNW visible
31 Oct 3.6 14:46:57 10° NNW 14:51:14 21° NNE 14:55:07 11° ENE visible
31 Oct 2.4 16:30:47 10° NNW 16:36:20 51° NE 16:36:38 50° ENE visible
31 Oct 3.7 18:14:44 10° NW 18:18:10 32° WNW 18:18:10 32° WNW visible
01 Nov 3.7 14:27:41 10° NNW 14:31:53 21° NNE 14:36:03 10° ENE visible
01 Nov 2.5 16:11:33 10° NNW 16:17:03 47° NE 16:18:01 43° ENE visible
01 Nov 3.4 17:55:28 10° NW 17:59:33 39° WNW 17:59:33 39° WNW visible
02 Nov 2.6 15:52:20 10° NNW 15:57:46 44° NE 15:59:26 35° E visible
02 Nov 3.0 17:36:11 10° NW 17:40:58 49° W 17:40:58 49° W visible
03 Nov 2.7 15:33:06 10° NNW 15:38:29 41° NE 15:40:55 27° E visible
03 Nov 2.6 17:16:55 10° NW 17:22:27 57° WSW 17:22:27 57° WSW visible
03 Nov 4.9 19:02:57 10° WNW 19:04:00 12° W 19:04:00 12° W visible
04 Nov 2.8 15:13:53 10° NNW 15:19:10 38° NE 15:22:29 20° E visible
04 Nov 2.5 16:57:40 10° NW 17:03:17 63° WSW 17:04:02 57° SSW visible
04 Nov 4.7 18:43:15 10° WNW 18:45:35 14° W 18:45:35 14° W visible
05 Nov 2.9 14:54:39 10° NNW 14:59:52 35° NE 15:04:10 14° E visible
05 Nov 2.4 16:38:25 10° NW 16:44:05 69° WSW 16:45:43 46° S visible
05 Nov 4.6 18:23:41 10° WNW 18:26:50 15° W 18:27:16 15° WSW visible
06 Nov 2.9 14:35:26 10° NNW 14:40:34 33° NE 14:45:39 10° E visible
06 Nov 2.3 16:19:11 10° NW 16:24:52 76° WSW 16:27:31 33° SSE visible
06 Nov 4.5 18:04:11 10° WNW 18:07:43 17° W 18:09:05 16° WSW visible
